Location: ???????
(55.3754°N, 39.3545°E)
Time: 21:35:38
(UTC+00:00)

Cosmos 1626 Rocket - Pass Details

Date: 14 April 2026
Orbit: 596 x 624 km, 82.5° (Epoch: 16 May)

Event Time Altitude Azimuth Distance (km) Brightness Sun altitude
Rises 21:34:24 0° 350° (N) 2,860 8.2 -24.9°
Reaches altitude 10° 21:36:40 10° 355° (N) 1,950 7.1 -24.9°
Maximum altitude 21:40:54 55° 74° (ENE) 725 3.9 -24.9°
Enters shadow 21:40:55 55° 74° (ENE) 725 3.9 -24.9°
